Weather Roundup
Issued by NWS

Home | Current Version | Previous Version | Graphics & Text | Print | Product List | Glossary Off
Versions: 1 2 3 4 5 6 7 8 9 10 11 12 13 14 15 16 17 18 19 20 21 22 23 24 25 26 27 28 29 30 31 32 33 34 35 36 37 38 39 40 41 42 43 44 45 46 47 48 49 50

167
NZUS93 KARX 021210
HRRWXR

CURRENT HOURLY OBSERVATIONS ACROSS
MUCH OF THE UPPER MISSISSIPPI VALLEY
NATIONAL WEATHER SERVICE LA CROSSE WI
700 AM CDT MON MAY 02 2016


...SOUTHEAST MINNESOTA...


CITY           SKY/WX    TMP DP  RH WIND       PRES   REMARKS
ROCHESTER      CLEAR     39  39 100 S6        30.11S WCI  35
ROCHESTER/MAYO FAIR      43  40  91 CALM      30.12R
WINONA         MOSUNNY   37  37 100 CALM      30.13S FOG
AUSTIN         PTCLDY    37  36  93 CALM      30.10S
ALBERT LEA     CLEAR     37  37 100 CALM      30.10S
DODGE CENTER   PTCLDY    39  37  93 CALM      30.10S FOG
PRESTON        CLEAR     42  38  88 CALM      30.12S
OWATONNA       CLEAR     37  36  93 CALM      30.11S FOG
FARIBAULT      CLEAR     36  36 100 CALM      30.11S
$$

...ELSEWHERE IN MINNESOTA...


CITY           SKY/WX    TMP DP  RH WIND       PRES   REMARKS
MINNEAPOLIS    CLEAR     44  36  73 CALM      30.12R
INTNL FALLS    CLEAR     32  29  88 CALM      30.10S
DULUTH         MOSUNNY   35  31  85 CALM      30.12S
RED WING       CLEAR     39  36  87 CALM      30.11R
REDWOOD FALLS  CLEAR     41  32  70 W5        30.11S
MANKATO        CLEAR     39  34  81 CALM      30.11S
WORTHINGTON    CLEAR     39  33  79 W3        30.13S
FAIRMONT       CLEAR     41  32  70 NW5       30.11S
$$

...SOUTHWEST WISCONSIN...


CITY           SKY/WX    TMP DP  RH WIND       PRES   REMARKS
LA CROSSE      MOSUNNY   40  36  86 E3        30.12S
PRAIRIE DU CHI FOG       39  38  96 CALM      30.12S VSB<1/4
BOSCOBEL       FOG       36  36 100 CALM      30.12S VSB<1/4
LONE ROCK      FOG       36  35  96 W6        30.11S VSB 1   WCI  31
PLATTEVILLE    PTSUNNY   44  42  92 N7        30.10R
FORT MC COY    SUNNY     32  30  94 CALM      30.14R
CAMP DOUGLAS   SUNNY     30  30 100 CALM      30.12R
MAUSTON-NEW LI NOT AVBL
VIROQUA        FAIR      40  38  90 NE3       30.11S
WIS DELLS      SUNNY     36  35  96 CALM      30.11R
$$

...ELSEWHERE IN WISCONSIN...


CITY           SKY/WX    TMP DP  RH WIND       PRES   REMARKS
MILWAUKEE      MOSUNNY   43  38  82 N7        30.07S
MADISON        SUNNY     42  39  89 N7        30.09S
GREEN BAY      LGT RAIN  42  34  73 N6        30.12R
EAU CLAIRE     SUNNY     40  38  93 CALM      30.11S
BLACK RVR FLS  FAIR      31  31 100 CALM      30.13S
MEDFORD        SUNNY     35  34  96 NE3       30.11F
WAUSAU         SUNNY     40  35  83 CALM      30.11S
WIS RAPIDS     SUNNY     37  34  89 CALM      30.14S
MARSHFIELD     SUNNY     40  35  83 CALM      30.11S
RICE LAKE      SUNNY     37  35  92 CALM      30.13R
$$

...NORTHEAST IOWA...


CITY           SKY/WX    TMP DP  RH WIND       PRES   REMARKS
WATERLOO       FOG       36  36 100 MISG      30.11R VSB 1/4
DUBUQUE        CLOUDY    45  42  89 N10       30.09S
DECORAH        CLEAR     39  39 100 CALM      30.10S
MASON CITY     PTCLDY    38  37  97 W5        30.12S WCI  34
CHARLES CITY   CLOUDY    43  43 100 NE7       30.12R
OELWEIN        CLEAR     41  41 100 CALM      30.12R
$$

...ELSEWHERE IN IOWA...


CITY           SKY/WX    TMP DP  RH WIND       PRES   REMARKS
DES MOINES     PTCLDY    44  41  89 N5        30.11S
IOWA CITY      CLOUDY    46  43  89 N8        30.10S
FORT DODGE     CLOUDY    37  34  87 CALM      30.12S
MARSHALLTOWN   CLOUDY    38  38 100 CALM      30.11R FOG
CEDAR RAPIDS   CLOUDY    45  44  97 N5        30.09R
$$

...NORTHERN ILLINOIS...


CITY           SKY/WX    TMP DP  RH WIND       PRES   REMARKS
CHICAGO-OHARE  PTSUNNY   45  38  76 N9        30.04S
CHICAGO-MIDWAY PTSUNNY   47  36  65 NE10      30.04R
MOLINE         CLOUDY    49  45  86 NE3       30.07S
ROCKFORD       CLOUDY    48  44  86 N8        30.09R
PEORIA         CLOUDY    49  45  86 N6        30.04F
$$

NOTE: "FAIR" INDICATES FEW OR NO CLOUDS BELOW 12,000 FEET WITH NO
SIGNIFICANT WEATHER AND/OR OBSTRUCTIONS TO VISIBILITY. WIND
SPEEDS ARE IN MILES-PER-HOUR.




USA.gov is the U.S. government's official web portal to all federal, state and local government web resources and services.